Location: Newark
(42.8481°N, 0.4872°E)
Time: 08:47:35
(UTC+00:00)

A-11 Canister half - Pass Details

Date: 28 October 2020
Orbit: 1516 x 1684 km, 47.2° (Epoch: 04 December)

Event Time Altitude Azimuth Distance (km) Brightness Sun altitude
Rises 20:32:53 0° 240° (WSW) 4,929 12.1 -40.0°
Reaches altitude 10° 20:36:03 10° 240° (WSW) 3,938 11.5 -40.5°
Enters shadow 20:43:30 56° 235° (SW) 1,930 9.4 -41.8°
